Location: Stara Lesna
(49.1528°N, 20.2911°E)
Time: 19:12:05
(UTC+02:00)

COSMOS 2455 - Pass Details

Date: 13 July 2020
Orbit: 898 x 911 km, 67.1° (Epoch: 11 August)

Event Time Altitude Azimuth Distance (km) Brightness Sun altitude
Rises 00:09:53 0° 319° (NW) 3,552 6.9 -18.6°
Reaches altitude 10° 00:12:39 10° 310° (NW) 2,607 5.9 -18.7°
Maximum altitude 00:17:54 32° 249° (WSW) 1,516 3.9 -18.8°
Enters shadow 00:20:11 24° 212° (SSW) 1,774 3.9 -18.8°
